Overview Statistics Trail Chart Weather Telemetry Raw packets
 

This is the latest recevied weather packets stored in our database for station/object YO3FNC-10. If no packets are shown the sender has not sent any weather packets the latest 10 day(s).

<< 2 3 4 5 6 7 8 >>
Time Temp. Humidity Pressure Rain* Wind** Luminosity Snow
1788484612 30° C 37% 1016.7 hPa - - - -
1788483711 30° C 37% 1016.6 hPa - - - -
1788482809 31.11° C 35% 1016.7 hPa - - - -
1788481008 30° C 36% 1016.7 hPa - - - -
1788480108 30° C 37% 1016.9 hPa - - - -
1788479208 30° C 37% 1017 hPa - - - -
1788478308 29.44° C 37% 1017 hPa - - - -
1788477408 29.44° C 37% 1017.9 hPa - - - -
1788476507 30° C 36% 1017.8 hPa - - - -
1788475606 29.44° C 36% 1018.1 hPa - - - -
1788474706 29.44° C 35% 1017.8 hPa - - - -
1788473806 28.89° C 36% 1017.3 hPa - - - -
1788472906 28.89° C 36% 1017.5 hPa - - - -
1788472006 28.89° C 36% 1017.5 hPa - - - -
1788471106 28.89° C 36% 1017.2 hPa - - - -
1788470215 29.44° C 36% 1017.1 hPa - - - -
1788469300 29.44° C 35% 1017.3 hPa - - - -
1788468400 29.44° C 34% 1017.4 hPa - - - -
1788467499 29.44° C 34% 1017.1 hPa - - - -
1788466599 29.44° C 34% 1017 hPa - - - -
1788465699 29.44° C 34% 1016.9 hPa - - - -
1788464798 30° C 35% 1016.9 hPa - - - -
1788463898 30° C 34% 1016.9 hPa - - - -
1788462998 30° C 34% 1016.9 hPa - - - -
1788462098 30° C 34% 1016.9 hPa - - - -

* Rain since midnight (hover to see other rain measurements)
** Current wind speed in m/s (hover to see current wind gust speed)